This is the latest recevied weather packets stored in our database for station/object VA3BOO. If no packets are shown the sender has not sent any weather packets the latest 10 day(s).
| Time | Temp. | Humidity | Pressure | Rain* | Wind** | Luminosity | Snow |
|---|---|---|---|---|---|---|---|
| 1777063804 | 13.33° C | 31% | 1012.2 hPa | 0 mm | - | 439 W/m² | - |
| 1777063504 | 13.33° C | 31% | 1012.1 hPa | 0 mm | - | 454 W/m² | - |
| 1777063204 | 13.33° C | 32% | 1012 hPa | 0 mm | - | 470 W/m² | - |
| 1777062904 | 13.33° C | 30% | 1012.1 hPa | 0 mm | - | 484 W/m² | - |
| 1777062604 | 13.89° C | 31% | 1012.2 hPa | 0 mm | - | 500 W/m² | - |
| 1777062304 | 12.78° C | 32% | 1012.3 hPa | 0 mm | - | 512 W/m² | - |
| 1777062004 | 13.33° C | 32% | 1012.2 hPa | 0 mm | - | 527 W/m² | - |
| 1777061703 | 13.33° C | 30% | 1012.1 hPa | 0 mm | - | 542 W/m² | - |
| 1777061404 | 12.78° C | 30% | 1012.5 hPa | 0 mm | - | 554 W/m² | - |
| 1777061103 | 13.33° C | 30% | 1012.6 hPa | 0 mm | - | 565 W/m² | - |
| 1777060803 | 12.78° C | 34% | 1012.6 hPa | 0 mm | - | 578 W/m² | - |
| 1777060504 | 12.78° C | 33% | 1012.3 hPa | 0 mm | - | 593 W/m² | - |
| 1777060204 | 12.78° C | 31% | 1012.5 hPa | 0 mm | - | 604 W/m² | - |
| 1777059904 | 12.78° C | 30% | 1012.4 hPa | 0 mm | - | 615 W/m² | - |
| 1777059604 | 13.33° C | 30% | 1012.4 hPa | 0 mm | - | 627 W/m² | - |
| 1777059304 | 13.33° C | 31% | 1012.4 hPa | 0 mm | - | 639 W/m² | - |
| 1777059004 | 12.78° C | 31% | 1012.5 hPa | 0 mm | - | 639 W/m² | - |
| 1777058704 | 12.78° C | 31% | 1012.5 hPa | 0 mm | - | 659 W/m² | - |
| 1777058404 | 13.33° C | 32% | 1012.6 hPa | 0 mm | - | 669 W/m² | - |
| 1777058104 | 13.33° C | 32% | 1012.7 hPa | 0 mm | - | 678 W/m² | - |
| 1777057804 | 12.78° C | 35% | 1012.8 hPa | 0 mm | - | 687 W/m² | - |
| 1777057504 | 12.22° C | 34% | 1012.8 hPa | 0 mm | - | 697 W/m² | - |
| 1777057204 | 12.78° C | 35% | 1012.6 hPa | 0 mm | - | 705 W/m² | - |
| 1777056904 | 12.22° C | 33% | 1012.7 hPa | 0 mm | - | 716 W/m² | - |
| 1777056604 | 12.22° C | 35% | 1012.8 hPa | 0 mm | - | 723 W/m² | - |
* Rain latest hour (hover to see other rain measurements)
** Current wind speed in m/s (hover to see current wind gust speed)